• In Österreich
  • Länderverzeichnis
  • Für 7 Tage
  • Wassertemperatur
  • Satellitenkarten
  • Wetterkarte
  • News
  • Widgets
  • user-avatar
    Anmelden

    Stündliche Wetter Batina

    Heute, 27 Mai, Sonntag

    Zeit Temperatur Niederschläge Wind Luftdruck Luftfeuchtigkeit
    00:00 +24°C° 0 mm 3 m/S 672 mmHg 33%
    01:00 +24°C° 0 mm 3 m/S 672 mmHg 35%
    02:00 +22°C° 0 mm 3 m/S 672 mmHg 37%
    03:00 +22°C° 0 mm 3 m/S 672 mmHg 39%
    04:00 +22°C° 0 mm 3 m/S 672 mmHg 40%
    05:00 +22°C° 0 mm 3 m/S 672 mmHg 41%
    06:00 +23°C° 0 mm 2 m/S 672 mmHg 41%
    07:00 +25°C° 0 mm 3 m/S 673 mmHg 37%
    08:00 +27°C° 0 mm 4 m/S 673 mmHg 32%
    09:00 +28°C° 0 mm 5 m/S 674 mmHg 27%
    10:00 +29°C° 0 mm 5 m/S 674 mmHg 26%
    11:00 +30°C° 0 mm 5 m/S 674 mmHg 25%
    12:00 +30°C° 0 mm 6 m/S 674 mmHg 24%
    13:00 +30°C° 0 mm 5 m/S 674 mmHg 24%
    14:00 +30°C° 0 mm 5 m/S 673 mmHg 24%
    15:00 +30°C° 0 mm 4 m/S 673 mmHg 24%
    16:00 +29°C° 0 mm 4 m/S 673 mmHg 26%
    17:00 +29°C° 0 mm 4 m/S 672 mmHg 27%
    18:00 +29°C° 0 mm 4 m/S 672 mmHg 28%
    19:00 +27°C° 0 mm 4 m/S 672 mmHg 32%
    20:00 +26°C° 0 mm 4 m/S 672 mmHg 37%
    21:00 +25°C° 0 mm 4 m/S 672 mmHg 41%
    22:00 +23°C° 0 mm 4 m/S 671 mmHg 44%
    23:00 +22°C° 0 mm 4 m/S 671 mmHg 47%

    Morgen, 28 Mai, Montag

    Zeit Temperatur Niederschläge Wind Luftdruck Luftfeuchtigkeit
    00:00 +22°C° 0 mm 4 m/S 671 mmHg 50%
    01:00 +21°C° 0 mm 3 m/S 671 mmHg 52%
    02:00 +20°C° 0 mm 3 m/S 670 mmHg 54%
    03:00 +20°C° 0 mm 3 m/S 670 mmHg 56%
    04:00 +20°C° 0 mm 4 m/S 670 mmHg 53%
    05:00 +21°C° 0 mm 4 m/S 670 mmHg 50%
    06:00 +21°C° 0 mm 5 m/S 670 mmHg 48%
    07:00 +23°C° 0 mm 6 m/S 670 mmHg 41%
    08:00 +27°C° 0 mm 8 m/S 671 mmHg 35%
    09:00 +29°C° 0 mm 9 m/S 671 mmHg 29%
    10:00 +31°C° 0 mm 9 m/S 671 mmHg 28%
    11:00 +31°C° 0 mm 9 m/S 671 mmHg 27%
    12:00 +32°C° 0 mm 9 m/S 671 mmHg 26%
    13:00 +32°C° 0 mm 9 m/S 670 mmHg 25%
    14:00 +33°C° 0 mm 8 m/S 670 mmHg 24%
    15:00 +33°C° 0 mm 8 m/S 670 mmHg 23%
    16:00 +30°C° 0 mm 7 m/S 669 mmHg 28%
    17:00 +29°C° 0 mm 6 m/S 669 mmHg 33%
    18:00 +28°C° 0 mm 5 m/S 669 mmHg 37%
    19:00 +26°C° 0 mm 4 m/S 669 mmHg 46%
    20:00 +22°C° 0 mm 4 m/S 669 mmHg 55%
    21:00 +20°C° 0 mm 4 m/S 670 mmHg 64%
    22:00 +20°C° 0 mm 3 m/S 669 mmHg 68%
    23:00 +19°C° 0 mm 3 m/S 669 mmHg 71%

    übermorgen, 29 Mai, Dienstag

    Zeit Temperatur Niederschläge Wind Luftdruck Luftfeuchtigkeit
    00:00 +18°C° 0 mm 3 m/S 669 mmHg 75%
    01:00 +18°C° 0 mm 3 m/S 669 mmHg 76%
    02:00 +17°C° 0 mm 3 m/S 669 mmHg 78%
    03:00 +17°C° 0 mm 3 m/S 669 mmHg 79%
    04:00 +17°C° 0 mm 3 m/S 669 mmHg 78%
    05:00 +17°C° 0 mm 3 m/S 669 mmHg 77%
    06:00 +17°C° 0 mm 3 m/S 669 mmHg 75%
    07:00 +18°C° 0 mm 3 m/S 669 mmHg 70%
    08:00 +20°C° 0 mm 3 m/S 670 mmHg 65%
    09:00 +21°C° 0 mm 3 m/S 670 mmHg 59%
    10:00 +22°C° 0 mm 3 m/S 670 mmHg 54%
    11:00 +24°C° 0 mm 3 m/S 670 mmHg 48%
    12:00 +26°C° 0 mm 3 m/S 670 mmHg 42%
    13:00 +26°C° 0 mm 3 m/S 670 mmHg 40%
    14:00 +27°C° 0 mm 4 m/S 670 mmHg 38%
    15:00 +28°C° 0 mm 4 m/S 670 mmHg 36%
    16:00 +27°C° 0,2 mm 4 m/S 670 mmHg 40%
    17:00 +26°C° 0,2 mm 4 m/S 670 mmHg 44%
    18:00 +25°C° 0,2 mm 4 m/S 670 mmHg 49%
    19:00 +23°C° 0,1 mm 4 m/S 670 mmHg 55%
    20:00 +22°C° 0,1 mm 3 m/S 670 mmHg 61%
    21:00 +21°C° 0,1 mm 3 m/S 670 mmHg 67%
    22:00 +20°C° 0 mm 3 m/S 670 mmHg 70%
    23:00 +20°C° 0 mm 3 m/S 669 mmHg 73%

    30 Mai, Mittwoch

    Zeit Temperatur Niederschläge Wind Luftdruck Luftfeuchtigkeit
    00:00 +19°C° 0 mm 3 m/S 669 mmHg 76%
    01:00 +19°C° 0 mm 3 m/S 669 mmHg 76%
    02:00 +18°C° 0 mm 3 m/S 668 mmHg 76%
    03:00 +18°C° 0 mm 3 m/S 668 mmHg 77%
    04:00 +18°C° 0 mm 3 m/S 668 mmHg 74%
    05:00 +19°C° 0 mm 2 m/S 669 mmHg 71%
    06:00 +19°C° 0 mm 2 m/S 669 mmHg 68%
    07:00 +21°C° 0 mm 2 m/S 670 mmHg 60%
    08:00 +23°C° 0 mm 2 m/S 670 mmHg 51%
    09:00 +25°C° 0 mm 2 m/S 671 mmHg 43%
    10:00 +27°C° 0 mm 3 m/S 671 mmHg 37%
    11:00 +28°C° 0 mm 3 m/S 671 mmHg 32%
    12:00 +30°C° 0 mm 4 m/S 671 mmHg 26%
    13:00 +30°C° 0 mm 4 m/S 671 mmHg 25%
    14:00 +30°C° 0 mm 5 m/S 671 mmHg 25%
    15:00 +32°C° 0 mm 5 m/S 671 mmHg 24%
    16:00 +29°C° 0 mm 5 m/S 671 mmHg 28%
    17:00 +28°C° 0 mm 5 m/S 670 mmHg 33%
    18:00 +27°C° 0 mm 5 m/S 670 mmHg 37%
    19:00 +26°C° 0 mm 4 m/S 670 mmHg 43%
    20:00 +25°C° 0 mm 4 m/S 670 mmHg 49%
    21:00 +22°C° 0 mm 4 m/S 670 mmHg 55%
    22:00 +22°C° 0 mm 4 m/S 670 mmHg 57%
    23:00 +21°C° 0 mm 3 m/S 670 mmHg 60%

    31 Mai, Donnerstag

    Zeit Temperatur Niederschläge Wind Luftdruck Luftfeuchtigkeit
    00:00 +20°C° 0 mm 3 m/S 669 mmHg 63%
    01:00 +20°C° 0 mm 3 m/S 669 mmHg 66%
    02:00 +19°C° 0 mm 2 m/S 669 mmHg 70%
    03:00 +18°C° 0 mm 2 m/S 669 mmHg 73%
    04:00 +19°C° 0 mm 2 m/S 670 mmHg 74%
    05:00 +19°C° 0 mm 2 m/S 670 mmHg 74%
    06:00 +19°C° 0 mm 2 m/S 670 mmHg 75%
    07:00 +20°C° 0 mm 2 m/S 671 mmHg 67%
    08:00 +21°C° 0 mm 3 m/S 671 mmHg 60%
    09:00 +24°C° 0 mm 3 m/S 672 mmHg 52%
    10:00 +25°C° 0 mm 3 m/S 672 mmHg 45%
    11:00 +27°C° 0 mm 3 m/S 672 mmHg 38%
    12:00 +28°C° 0 mm 3 m/S 672 mmHg 31%
    13:00 +29°C° 0 mm 4 m/S 672 mmHg 29%
    14:00 +29°C° 0 mm 4 m/S 672 mmHg 27%
    15:00 +30°C° 0 mm 4 m/S 672 mmHg 25%
    16:00 +29°C° 0,1 mm 4 m/S 672 mmHg 31%
    17:00 +27°C° 0,1 mm 4 m/S 672 mmHg 37%
    18:00 +26°C° 0,1 mm 3 m/S 671 mmHg 43%
    19:00 +25°C° 0,3 mm 3 m/S 672 mmHg 49%
    20:00 +24°C° 0,3 mm 3 m/S 672 mmHg 55%
    21:00 +22°C° 0,3 mm 3 m/S 672 mmHg 60%
    22:00 +21°C° 0 mm 2 m/S 672 mmHg 63%
    23:00 +20°C° 0 mm 2 m/S 672 mmHg 66%

    1 Juni, Freitag

    Zeit Temperatur Niederschläge Wind Luftdruck Luftfeuchtigkeit
    00:00 +20°C° 0 mm 2 m/S 672 mmHg 69%
    01:00 +19°C° 0 mm 2 m/S 671 mmHg 70%
    02:00 +20°C° 0 mm 1 m/S 671 mmHg 71%
    03:00 +20°C° 0 mm 1 m/S 671 mmHg 73%
    04:00 +20°C° 0 mm 1 m/S 671 mmHg 72%
    05:00 +20°C° 0 mm 1 m/S 672 mmHg 70%
    06:00 +20°C° 0 mm 1 m/S 672 mmHg 69%
    07:00 +22°C° 0 mm 1 m/S 672 mmHg 61%
    08:00 +24°C° 0 mm 1 m/S 673 mmHg 53%
    09:00 +25°C° 0 mm 1 m/S 673 mmHg 44%
    10:00 +26°C° 0 mm 1 m/S 673 mmHg 39%
    11:00 +28°C° 0 mm 1 m/S 673 mmHg 35%
    12:00 +29°C° 0 mm 2 m/S 673 mmHg 30%
    13:00 +29°C° 0 mm 2 m/S 673 mmHg 29%
    14:00 +29°C° 0 mm 2 m/S 673 mmHg 28%
    15:00 +30°C° 0 mm 2 m/S 673 mmHg 28%
    16:00 +29°C° 0,2 mm 2 m/S 673 mmHg 31%
    17:00 +28°C° 0,2 mm 2 m/S 673 mmHg 34%
    18:00 +28°C° 0,2 mm 2 m/S 673 mmHg 38%
    19:00 +27°C° 0,1 mm 2 m/S 673 mmHg 41%
    20:00 +26°C° 0,1 mm 2 m/S 673 mmHg 45%
    21:00 +25°C° 0,1 mm 2 m/S 673 mmHg 49%
    22:00 +24°C° 0,3 mm 2 m/S 673 mmHg 52%
    23:00 +23°C° 0,3 mm 2 m/S 673 mmHg 55%
    Mehr zeigen